Weather History for Millville, NJ

Change the Weather History Date:

Monday, April 15, 2013

  Actual Average Record
Temperature  
Mean Temperature 52 °F -  
Max Temperature 57 °F 60 °F 85 °F (1967)
Min Temperature 46 °F 41 °F 28 °F (1973)
Degree Days  
Heating Degree Days 14    
Growing Degree Days 2 (Base 50)    
Moisture  
Dew Point 41 °F    
Average Humidity 68    
Maximum Humidity 86    
Minimum Humidity 54    
Precipitation  
Precipitation 0.00 in - - ()
Sea Level Pressure  
Sea Level Pressure 30.29 in    
Wind  
Wind Speed 7 mph (ESE)    
Max Wind Speed 16 mph    
Max Gust Speed -    
Visibility 10 miles    
Events Rain    
Averages and records for this station are not official NWS values.
T = Trace of Precipitation, MM = Missing Value Source: NWS Daily Summary

Daily Weather History Graph

Daily Weather History Graph

Search for Another Location

Airport:

Trip Planner

Search our weather history database for the weather conditions in past years. The results will help you decide how hot, cold, wet, or windy it might be!

Date:

Astronomy

Apr. 15, 2013 Rise Set
Actual Time 6:22 AM EDT 7:38 PM EDT
Civil Twilight 5:55 AM EDT 8:06 PM EDT
Nautical Twilight 5:21 AM EDT 8:39 PM EDT
Astronomical Twilight 4:47 AM EDT 9:14 PM EDT
Moon 9:47 AM EDT (4/15) No Moon Set
Length of Visible Light 14h 10m
Length of Day
13h 15m
Waxing Crescent, 24% of the Moon is Illuminated
Apr 15
Waxing Crescent
Apr 18
First Quarter
Apr 25
Full
May 2
Last Quarter
May 9
New

Hourly Weather History & Observations

Time (EDT) Temp. Dew Point Humidity Pressure Visibility Wind Dir Wind Speed Gust Speed Precip Events Conditions
12:54 AM 48.9 °F 39.9 °F 71% 30.17 in 10.0 mi Calm Calm - N/A   Clear
1:54 AM 48.0 °F 39.0 °F 71% 30.20 in 10.0 mi East 6.9 mph - N/A   Clear
2:54 AM 48.9 °F 37.9 °F 66% 30.21 in 10.0 mi East 8.1 mph - N/A   Clear
3:54 AM 50.0 °F 36.0 °F 59% 30.24 in 10.0 mi ESE 6.9 mph - N/A   Clear
4:54 AM 48.9 °F 36.0 °F 61% 30.25 in 10.0 mi ESE 8.1 mph - N/A   Overcast
5:54 AM 48.9 °F 33.1 °F 54% 30.25 in 10.0 mi East 10.4 mph - 0.00 in   Mostly Cloudy
6:54 AM 48.0 °F 36.0 °F 63% 30.28 in 10.0 mi East 6.9 mph - N/A   Overcast
7:54 AM 46.9 °F 37.9 °F 71% 30.31 in 10.0 mi East 10.4 mph - 0.00 in   Overcast
8:54 AM 46.9 °F 39.9 °F 77% 30.30 in 10.0 mi East 10.4 mph - 0.00 in Rain Light Rain
9:54 AM 48.0 °F 42.1 °F 80% 30.30 in 10.0 mi East 12.7 mph - 0.00 in Rain Light Rain
10:54 AM 53.1 °F 42.1 °F 66% 30.30 in 10.0 mi East 12.7 mph - 0.00 in   Overcast
11:54 AM 55.0 °F 42.1 °F 62% 30.30 in 10.0 mi East 12.7 mph - 0.00 in Rain Light Rain
12:54 PM 55.9 °F 41.0 °F 57% 30.28 in 10.0 mi East 16.1 mph - 0.00 in   Overcast
1:54 PM 55.0 °F 41.0 °F 59% 30.30 in 10.0 mi ESE 10.4 mph - N/A   Overcast
2:54 PM 55.9 °F 42.1 °F 60% 30.30 in 10.0 mi ESE 11.5 mph - N/A   Overcast
3:54 PM 57.0 °F 42.1 °F 57% 30.29 in 10.0 mi SE 9.2 mph - N/A   Mostly Cloudy
4:54 PM 55.0 °F 43.0 °F 64% 30.29 in 10.0 mi ESE 9.2 mph - N/A   Overcast
5:54 PM 54.0 °F 43.0 °F 66% 30.30 in 10.0 mi SE 9.2 mph - N/A   Overcast
6:54 PM 54.0 °F 44.1 °F 69% 30.30 in 10.0 mi East 8.1 mph - N/A   Overcast
7:54 PM 52.0 °F 44.1 °F 74% 30.32 in 10.0 mi East 6.9 mph - N/A   Overcast
8:54 PM 51.1 °F 44.1 °F 77% 30.34 in 10.0 mi ESE 4.6 mph - N/A   Overcast
9:54 PM 50.0 °F 44.1 °F 80% 30.34 in 10.0 mi ESE 4.6 mph - 0.00 in   Overcast
10:54 PM 48.9 °F 43.0 °F 80% 30.34 in 10.0 mi East 6.9 mph - N/A   Overcast
11:54 PM 48.0 °F 44.1 °F 86% 30.34 in 10.0 mi East 4.6 mph - N/A   Overcast